Location: Markham City
(38.3303°N, 88.7223°W)
Time: 15:55:40
(UTC+00:00)

Daily predictions for brighter satellites

Satellite Brightness Start Highest point End
(mag) Time Altitude Azimuth Time Altitude Azimuth Time Altitude Azimuth
ATLAS 5 CENTAUR R/B 2.4 12:03:12 12° W 12:05:54 24° NW 12:09:20 10° N
CZ-4B R/B 2.6 12:04:11 10° N 12:07:43 60° WNW 12:11:18 10° SSW
Cosmos 1340 Rocket 3.3 12:04:51 10° SW 12:08:31 37° WNW 12:12:16 10° N
Cosmos 158 Rocket 4.1 12:03:34 10° NNW 12:08:46 84° ENE 12:14:04 10° SSE
Envisat 4.1 12:05:02 10° NNW 12:08:46 21° WNW 12:12:30 10° WSW
Cosmos 1666 4.3 12:09:07 10° SSE 12:12:38 37° E 12:16:08 10° NNE
Nadezhda 4 Rocket 4.3 12:06:59 10° SSW 12:12:45 41° WNW 12:18:36 10° N
Alouette 2 Rocket 3.1 12:09:35 10° NNW 12:13:08 72° W 12:16:59 10° S
Cosmos 1500 Rocket 4.1 12:09:22 10° SSW 12:13:30 37° WNW 12:17:40 10° N
NOAA 6 4.3 12:10:11 10° NNE 12:15:19 74° ESE 12:20:25 10° S
Sich 1 2.9 12:12:10 10° S 12:16:26 81° W 12:20:43 10° N
DMSP B5D2-2 4.1 12:11:34 10° S 12:16:42 60° W 12:21:52 10° NNW
Lacrosse 4 Rocket 4.1 12:20:39 10° NNE 12:22:55 14° NE 12:25:11 10° E
ATLAS 3B R/B 3.0 12:19:01 10° WSW 12:25:05 40° NW 12:31:28 10° NNE
H-2A R/B 2.0 12:21:12 10° S 12:25:26 73° WSW 12:29:49 10° NNW
Cosmos 1805 Rocket 3.8 12:21:38 10° SSW 12:25:52 47° W 12:30:06 10° N
Meteor 1-27 Rocket 4.3 12:22:19 10° NNW 12:27:29 36° W 12:32:43 10° SSW
BREEZE-M DEB (TANK) 3.6 12:18:08 10° NW 12:28:11 77° SW 12:31:23 10° SE
Lacrosse 5 2.3 12:23:24 10° SSW 12:28:26 68° SE 12:33:31 10° NE
Cosmos 1428 Rocket 4.5 12:23:05 10° SSW 12:29:09 62° W 12:35:12 10° N
Cosmos 1707 Rocket 4.1 12:25:59 10° N 12:30:25 65° E 12:34:51 10° SSE
Cosmos 1092 Rocket 4.2 12:25:41 10° SSW 12:31:43 51° W 12:37:52 10° N
Cosmos 1602 3.7 22:56:46 10° N 23:00:38 69° E 23:04:29 10° SSE
COSMOS 2455 3.2 22:55:31 10° SW 23:01:29 69° WNW 23:07:32 10° NNE
SL-08 R/B 4.2 22:58:56 10° N 23:03:27 50° WNW 23:07:52 10° SSW
Cosmos 2369 3.7 22:57:57 10° NNW 23:03:39 65° ENE 23:09:18 10° SSE
DEBRIS 4.3 23:02:44 10° SE 23:03:39 11° ESE 23:04:45 10° E
USA 267 3.5 22:58:42 10° NE 23:05:13 71° NW 23:11:42 10° WSW
Cosmos 1937 Rocket 3.6 23:01:49 10° NNW 23:07:10 86° ENE 23:12:28 10° SSE
Cosmos 2082 Rocket 2.4 23:02:18 10° SSW 23:07:59 80° WNW 23:13:41 10° NNE
Cosmos 372 Rocket 4.1 23:02:50 10° N 23:07:59 54° ENE 23:13:07 10° SSE
FengYun 1-2 T 4.2 23:02:46 10° SSE 23:08:20 73° ENE 23:13:51 10° N
SL-16 R/B 3.6 23:05:55 10° NNE 23:09:27 16° NE 23:12:57 10° E
H-2A R/B 2.7 23:05:46 10° SE 23:10:13 30° ENE 23:14:35 10° N
ARGOS 4.3 23:08:42 10° ESE 23:12:36 21° ENE 23:16:30 10° NNE
CZ-2C R/B 3.3 23:07:53 10° S 23:12:45 69° WSW 23:17:31 10° NNW
Cosmos 1151 Rocket 3.2 23:09:33 10° SSE 23:13:43 49° E 23:17:55 10° NNE
Cosmos 1500 3.1 23:10:43 10° N 23:14:25 63° E 23:18:05 10° SSE
COSMO-SKYMED 1 3.7 23:11:30 10° NE 23:15:00 23° E 23:18:29 10° SSE
Cosmos 1633 Rocket 3.7 23:12:26 10° NNE 23:16:24 33° ENE 23:20:21 10° SE
X-37B 0.6 23:17:59 10° SW 23:20:48 56° SSE 23:23:02 15° ENE
Cosmos 1939 Rocket 2.9 23:17:29 10° SSE 23:21:36 89° ENE 23:25:41 10° NNW
CZ-4B DEB 4.2 23:19:03 10° SSE 23:24:27 61° ENE 23:29:52 10° N
CZ-2D R/B 3.6 23:22:01 10° SE 23:25:37 40° ENE 23:29:13 10° N
Cosmos 2278 3.8 23:20:48 10° NNW 23:26:23 55° ENE 23:31:57 10° SE
Cosmos 1092 Rocket 4.5 23:23:05 10° NNW 23:29:23 67° W 23:35:36 10° S
Cosmos 1782 3.9 23:26:00 10° SSW 23:29:50 47° W 23:33:42 10° N
NOAA 6 4.1 23:25:00 10° SSE 23:30:08 89° WSW 23:35:17 10° NNW
AQUARIUS 4.1 23:27:16 10° SSE 23:31:45 84° ENE 23:36:15 10° N
Meteor 1-14 Rocket 4.3 23:26:41 10° N 23:32:33 66° E 23:38:27 10° SSE
USA 234 3.6 23:30:01 10° ESE 23:36:09 45° NE 23:42:17 10° NW
CZ-2C R/B 2.8 23:32:43 10° NNE 23:37:42 46° E 23:42:39 10° S
Cosmos 1328 Rocket 3.5 23:37:00 10° S 23:41:24 73° E 23:45:50 10° NNE
MOS 1-B 4.3 23:37:28 10° SSE 23:43:09 64° ENE 23:48:52 10° N
Cosmos 1666 2.5 23:39:34 10° N 23:43:16 77° E 23:46:58 10° S
Cosmos 1666 Rocket 3.5 23:40:52 10° N 23:45:19 89° E 23:49:41 10° S
SL-24 R/B - RUBIN 2 4.1 23:41:56 10° NW 23:46:17 61° WSW 23:50:31 10° SSE
Okean O Rocket 2.2 23:42:26 10° SE 23:46:27 34° ENE 23:50:29 10° N
Cosmos 1470 Rocket 3.9 23:44:35 10° N 23:48:52 43° E 23:53:08 10° SSE
SMAP 3.9 23:44:21 10° S 23:48:52 53° W 23:53:26 10° NNW
Cosmos 2279 Rocket 4.1 23:42:53 10° S 23:49:06 81° W 23:55:19 10° N
CZ-4B R/B 3.2 23:46:25 10° SSE 23:51:41 55° ENE 23:56:53 10° N
CZ-4C R/B 3.9 23:54:58 27° ESE 23:54:58 27° ESE 23:57:35 10° SSE
ATLAS 5 CENTAUR R/B 3.5 23:51:30 10° NNW 23:54:48 17° NNE 23:54:52 17° NNE
Lacrosse 5 rocket 1.9 23:51:48 10° NNW 23:55:29 35° NE 23:56:31 30° ENE
